| time (UTC) | temp F | wind direction | speed MPH | gust MPH | rain 1hr in | rain 24hr in | rain mn in | humidity % | barometer mb |
| 20260508163029 | 55 | 270 | 10.0 | 19.0 | 0.00 | 0.00 | 0.00 | 64 | 1016.7 |
| 20260508161530 | 56 | 277 | 9.0 | 18.0 | 0.00 | 0.00 | 0.00 | 64 | 1016.7 |
| 20260508160030 | 56 | 281 | 10.0 | 19.0 | 0.00 | 0.00 | 0.00 | 64 | 1016.6 |
| 20260508154532 | 55 | 279 | 11.0 | 22.0 | 0.00 | 0.00 | 0.00 | 65 | 1016.6 |
| 20260508153030 | 55 | 271 | 10.0 | 21.0 | 0.00 | 0.00 | 0.00 | 66 | 1016.5 |
| 20260508151605 | 55 | 264 | 9.0 | 18.0 | 0.00 | 0.00 | 0.00 | 66 | 1016.3 |
| 20260508150031 | 55 | 259 | 8.0 | 18.0 | 0.00 | 0.00 | 0.00 | 66 | 1016.1 |
| 20260508144530 | 53 | 319 | 4.0 | 9.0 | 0.00 | 0.00 | 0.00 | 65 | 1015.9 |
| 20260508143031 | 53 | 348 | 6.0 | 12.0 | 0.00 | 0.00 | 0.00 | 65 | 1015.6 |
| 20260508141604 | 53 | 359 | 8.0 | 14.0 | 0.00 | 0.00 | 0.00 | 65 | 1015.4 |
| 20260508140032 | 52 | 360 | 7.0 | 14.0 | 0.00 | 0.00 | 0.00 | 67 | 1015.2 |
| 20260508133156 | 52 | 10 | 6.0 | 9.0 | 0.00 | 0.00 | 0.00 | 69 | 1014.9 |
| 20260508131530 | 52 | 332 | 5.0 | 10.0 | 0.00 | 0.00 | 0.00 | 69 | 1014.8 |
| 20260508130031 | 52 | 329 | 6.0 | 10.0 | 0.00 | 0.00 | 0.00 | 68 | 1014.7 |
| 20260508124533 | 51 | 336 | 5.0 | 10.0 | 0.00 | 0.00 | 0.00 | 67 | 1014.7 |
| 20260508121609 | 51 | 337 | 4.0 | 8.0 | 0.00 | 0.00 | 0.00 | 64 | 1014.5 |
| 20260508120032 | 51 | 345 | 4.0 | 9.0 | 0.00 | 0.00 | 0.00 | 64 | 1014.5 |
| 20260508111647 | 51 | 19 | 4.0 | 7.0 | 0.00 | 0.00 | 0.00 | 62 | 1014.1 |
| 20260508110149 | 51 | 32 | 3.0 | 5.0 | 0.00 | 0.00 | 0.00 | 61 | 1014.1 |
| 20260508101547 | 50 | 38 | 3.0 | 6.0 | 0.00 | 0.00 | 0.00 | 61 | 1014.1 |
| 20260508100029 | 50 | 38 | 4.0 | 7.0 | 0.00 | 0.00 | 0.00 | 60 | 1014.1 |
| 20260508094532 | 50 | 24 | 4.0 | 6.0 | 0.00 | 0.00 | 0.00 | 59 | 1014.0 |
| 20260508093029 | 51 | 22 | 4.0 | 6.0 | 0.00 | 0.00 | 0.00 | 57 | 1013.9 |
| 20260508090032 | 53 | 37 | 3.0 | 6.0 | 0.00 | 0.00 | 0.00 | 54 | 1013.9 |
| 20260508084532 | 53 | 39 | 2.0 | 5.0 | 0.00 | 0.00 | 0.00 | 54 | 1013.9 |
| 20260508083030 | 53 | 11 | 2.0 | 4.0 | 0.00 | 0.00 | 0.00 | 53 | 1013.9 |
| 20260508081530 | 54 | 65 | 2.0 | 4.0 | 0.00 | 0.00 | 0.00 | 53 | 1013.9 |
| 20260508080030 | 54 | 35 | 0.0 | 3.0 | 0.00 | 0.00 | 0.00 | 53 | 1013.9 |
| 20260508074533 | 54 | 194 | 1.0 | 4.0 | 0.00 | 0.00 | 0.00 | 53 | 1013.9 |
| 20260508071531 | 54 | 105 | 0.0 | 3.0 | 0.00 | 0.00 | 0.00 | 53 | 1013.9 |
| 20260508070043 | 54 | 245 | 0.0 | 4.0 | 0.00 | 0.00 | 0.00 | 53 | 1013.8 |
| 20260508064532 | 54 | 172 | 1.0 | 5.0 | 0.00 | 0.00 | 0.00 | 51 | 1013.8 |
| 20260508061530 | 53 | 295 | 1.0 | 6.0 | 0.00 | 0.00 | 0.00 | 48 | 1013.8 |
| 20260508060029 | 54 | 312 | 1.0 | 4.0 | 0.00 | 0.00 | 0.00 | 46 | 1013.9 |
| 20260508054531 | 53 | 313 | 0.0 | 4.0 | 0.00 | 0.00 | 0.00 | 46 | 1013.8 |
| 20260508051606 | 55 | 282 | 3.0 | 5.0 | 0.00 | 0.00 | 0.00 | 43 | 1013.9 |
| 20260508044607 | 56 | 244 | 2.0 | 6.0 | 0.00 | 0.00 | 0.00 | 43 | 1013.7 |
| 20260508043028 | 57 | 217 | 2.0 | 5.0 | 0.00 | 0.00 | 0.00 | 44 | 1013.7 |
| 20260508041530 | 57 | 235 | 3.0 | 7.0 | 0.00 | 0.00 | 0.00 | 43 | 1013.6 |
| 20260508034532 | 59 | 238 | 5.0 | 13.0 | 0.00 | 0.00 | 0.00 | 37 | 1013.3 |
| 20260508031533 | 61 | 229 | 5.0 | 9.0 | 0.00 | 0.00 | 0.00 | 32 | 1013.0 |
| 20260508030030 | 62 | 219 | 5.0 | 10.0 | 0.00 | 0.00 | 0.00 | 30 | 1013.0 |
| 20260508023031 | 64 | 255 | 8.0 | 15.0 | 0.00 | 0.00 | 0.00 | 28 | 1012.8 |
| 20260508021608 | 65 | 261 | 8.0 | 15.0 | 0.00 | 0.00 | 0.00 | 27 | 1012.7 |
| 20260508020028 | 66 | 259 | 9.0 | 21.0 | 0.00 | 0.00 | 0.00 | 26 | 1012.6 |
| 20260508013030 | 68 | 255 | 11.0 | 21.0 | 0.00 | 0.00 | 0.00 | 23 | 1012.5 |
| 20260508011531 | 70 | 258 | 11.0 | 22.0 | 0.00 | 0.00 | 0.00 | 23 | 1012.6 |
| 20260508010107 | 70 | 265 | 11.0 | 23.0 | 0.00 | 0.00 | 0.00 | 22 | 1012.7 |
| 20260508004603 | 71 | 272 | 11.0 | 23.0 | 0.00 | 0.00 | 0.00 | 21 | 1012.7 |
| 20260508001532 | 72 | 271 | 11.0 | 22.0 | 0.00 | 0.00 | 0.00 | 21 | 1012.7 |
| 20260508000037 | 72 | 268 | 10.0 | 21.0 | 0.00 | 0.00 | 0.00 | 22 | 1012.7 |
| 20260507234533 | 72 | 264 | 12.0 | 26.0 | 0.00 | 0.00 | 0.00 | 23 | 1012.7 |
| 20260507231532 | 70 | 256 | 13.0 | 25.0 | 0.00 | 0.00 | 0.00 | 27 | 1012.9 |
| 20260507230029 | 71 | 255 | 13.0 | 25.0 | 0.00 | 0.00 | 0.00 | 28 | 1012.9 |
| 20260507224532 | 73 | 249 | 14.0 | 25.0 | 0.00 | 0.00 | 0.00 | 28 | 1012.9 |
| 20260507223030 | 74 | 248 | 13.0 | 22.0 | 0.00 | 0.00 | 0.00 | 29 | 1013.0 |
| 20260507220147 | 73 | 264 | 9.0 | 21.0 | 0.00 | 0.00 | 0.00 | 32 | 1013.5 |
| 20260507214530 | 73 | 268 | 11.0 | 21.0 | 0.00 | 0.00 | 0.00 | 33 | 1013.6 |
| 20260507213035 | 74 | 262 | 11.0 | 22.0 | 0.00 | 0.00 | 0.00 | 35 | 1013.8 |
| 20260507210031 | 73 | 270 | 7.0 | 17.0 | 0.00 | 0.00 | 0.00 | 39 | 1014.1 |
| 20260507204608 | 72 | 280 | 9.0 | 19.0 | 0.00 | 0.00 | 0.00 | 39 | 1014.2 |
| 20260507203032 | 73 | 285 | 8.0 | 18.0 | 0.00 | 0.00 | 0.00 | 40 | 1014.3 |
| 20260507201531 | 72 | 282 | 8.0 | 15.0 | 0.00 | 0.00 | 0.00 | 41 | 1014.5 |
| 20260507193031 | 69 | 284 | 8.0 | 16.0 | 0.00 | 0.00 | 0.00 | 44 | 1014.8 |
| 20260507190105 | 66 | 266 | 13.0 | 24.0 | 0.00 | 0.00 | 0.00 | 45 | 1015.1 |
| 20260507184533 | 67 | 275 | 12.0 | 24.0 | 0.00 | 0.00 | 0.00 | 47 | 1015.2 |
| 20260507183040 | 66 | 283 | 9.0 | 20.0 | 0.00 | 0.00 | 0.00 | 50 | 1015.5 |
| 20260507180031 | 65 | 301 | 6.0 | 13.0 | 0.00 | 0.00 | 0.00 | 53 | 1015.8 |
| 20260507173030 | 63 | 295 | 5.0 | 12.0 | 0.00 | 0.00 | 0.00 | 57 | 1016.2 |
| 20260507171605 | 62 | 284 | 7.0 | 14.0 | 0.00 | 0.00 | 0.00 | 58 | 1016.3 |
| 20260507170145 | 61 | 273 | 7.0 | 14.0 | 0.00 | 0.00 | 0.00 | 60 | 1016.4 |
| 20260507164607 | 59 | 269 | 7.0 | 14.0 | 0.00 | 0.00 | 0.00 | 62 | 1016.3 |